Whidbey Island, WA
on Saturday, February 9, 2013

Saturday
Previous Day Next Day
Daily Summary
 ActualAverageRecord
Temperature
Mean Temperature °F °F  
Max Temperature 44°F 46°F 54°F (2007)
Min Temperature 39°F 33°F 26°F (1997)
Degree Days
Heating Degree Days 24    
Moisture
Dew Point 38°F   
Average Humidity 88    
Maximum Humidity 93    
Minimum Humidity 81    
Precipitation
Precipitation 0.00 in in in ()
Wind
Wind Speed 4 mph   
Max Wind Speed 7 mph   
Max Gust Speed mph   
Visibility 9 miles   
Events Rain   
Averages and records for this station are not official NWS values.
Key: T is trace of precipitation, MM is missing value
Source: NWS Daily Summary
Seasonal Weather Averages
Time(PST)TemperatureDew PointHumidity Pressure Visibility Wind DirectionWind SpeedGust SpeedPrecipitationEvents Conditions
12:56 AM 39.9°F 37.0°F 89% 30.29 in 10.0 miles ESE 3.5 mph - N/A   Overcast
1:56 AM 41.0°F 37.0°F 86% 30.29 in 10.0 miles East 3.5 mph - N/A   Overcast
2:56 AM 39.9°F 37.0°F 89% 30.28 in 10.0 miles East 4.6 mph - N/A   Overcast
3:56 AM 39.9°F 37.0°F 89% 30.28 in 10.0 miles East 3.5 mph - N/A   Overcast
4:21 AM 41.0°F 37.4°F 87% 30.27 in 10.0 miles East 3.5 mph - N/A   Overcast
4:56 AM 39.9°F 37.0°F 89% 30.28 in 10.0 miles East 3.5 mph - N/A   Overcast
5:56 AM 41.0°F 37.0°F 86% 30.29 in 10.0 miles East 4.6 mph - N/A   Overcast
6:56 AM 39.9°F 37.0°F 89% 30.28 in 10.0 miles East 4.6 mph - N/A   Overcast
7:22 AM 39.2°F 37.4°F 93% 30.26 in 10.0 miles East 6.9 mph - N/A   Overcast
7:56 AM 39.9°F 37.0°F 89% 30.28 in 10.0 miles ESE 4.6 mph - N/A   Overcast
8:27 AM 41.0°F 37.4°F 87% 30.28 in 10.0 miles East 3.5 mph - N/A   Overcast
8:56 AM 41.0°F 37.9°F 89% 30.29 in 9.0 miles East 6.9 mph - N/A   Overcast
9:08 AM 41.0°F 37.4°F 87% 30.27 in 9.0 miles ESE 6.9 mph - N/A   Overcast
9:56 AM 42.1°F 39.0°F 89% 30.30 in 10.0 miles ESE 5.8 mph - N/A   Overcast
10:56 AM 42.1°F 37.9°F 85% 30.31 in 4.0 miles SE 4.6 mph - N/A   Overcast
11:11 AM 41.0°F 37.4°F 87% 30.29 in 2.0 miles ESE 4.6 mph - N/A   Overcast
11:27 AM 41.0°F 37.4°F 87% 30.29 in 2.0 miles ESE 5.8 mph - 0.00 in Rain Light Rain
11:56 AM 42.1°F 39.9°F 92% 30.30 in 4.0 miles SE 5.8 mph - 0.00 in   Overcast
12:56 PM 43.0°F 39.9°F 89% 30.30 in 10.0 miles ESE 5.8 mph - 0.00 in Rain Light Rain
1:56 PM 43.0°F 39.9°F 89% 30.29 in 10.0 miles ESE 3.5 mph - 0.00 in Rain Light Rain
2:24 PM 44.6°F 39.2°F 81% 30.28 in 10.0 miles SSE 3.5 mph - 0.00 in   Overcast
2:29 PM 44.6°F 39.2°F 81% 30.28 in 10.0 miles Calm Calm - 0.00 in Rain Light Rain
2:56 PM 44.1°F 39.0°F 82% 30.30 in 10.0 miles Calm Calm - 0.00 in Rain Light Rain
3:56 PM 43.0°F 39.0°F 86% 30.30 in 7.0 miles ESE 4.6 mph - 0.00 in   Overcast
4:28 PM 42.8°F 39.2°F 87% 30.30 in 10.0 miles Calm Calm - N/A   Overcast
4:56 PM 43.0°F 39.0°F 86% 30.31 in 10.0 miles North 4.6 mph - N/A   Overcast
5:56 PM 41.0°F 37.9°F 89% 30.32 in 10.0 miles Calm Calm - N/A   Overcast
6:16 PM 41.0°F 37.4°F 87% 30.31 in 10.0 miles Calm Calm - N/A   Overcast
6:56 PM 41.0°F 37.9°F 89% 30.32 in 10.0 miles Calm Calm - N/A   Mostly Cloudy
7:56 PM 39.9°F 37.0°F 89% 30.32 in 7.0 miles Calm Calm - N/A   Overcast
8:56 PM 39.9°F 37.0°F 89% 30.34 in 8.0 miles Calm Calm - N/A   Overcast
9:56 PM 39.9°F 37.0°F 89% 30.35 in 5.0 miles Calm Calm - N/A   Overcast
10:56 PM 39.9°F 37.0°F 89% 30.36 in 7.0 miles Calm Calm - N/A   Overcast
11:56 PM 39.0°F 36.0°F 89% 30.37 in 7.0 miles Calm Calm - N/A   Overcast
Moon Phase
Feb. 09 Feb. 10 Feb. 17 Feb. 25 Mar. 04
Sunrise:07:26 AM (PST) Moon Rise:06:41 AM (PST)2/9
Sunset:05:23 PM (PST) Moon Set:05:15 PM (PST)2/9

Copyright © 2014 The Weather Underground, Inc.